Tracking 19476 objects as of 17-Jan-2019
HD Live streaming from Space Station
objects crossing your sky now

ORSTED

Track ORSTED now!
10-day predictions
ORSTED is classified as:


NORAD ID: 25635
Int'l Code: 1999-008B
Perigee: 640.6 km
Apogee: 837.3 km
Inclination: 96.5 °
Period: 99.4 minutes
Semi major axis: 7109 km
RCS: 0.3282 m2 (medium)
Launch date: February 23, 1999
Source: Denmark (DEN)
Launch site: AIR FORCE WESTERN TEST RANGE (AFWTR)

Magnetometer and a star camera for measurements of the geomagnetic field.
aabbcc
Your satellite tracking list
Your tracking list is empty




NASA's NSSDC Master Catalog

Two Line Element Set (TLE):
1 25635U 99008B   19016.90863355 +.00000046 +00000-0 +18593-4 0  9993
2 25635 096.4647 156.7580 0138306 200.7865 158.7676 14.48125183049718
Source of the keplerian elements: AFSPC